sat.trackr.live / text

‹ back to catalog

SJ-11-07

NORAD 40261 · 2014-059A

PAYLOAD ACTIVE UNKNOWN

§ Identity

Operator
Country
PRC
Launch date
2014-09-28
Launch site
JSC
Launch vehicle
Mass (kg)
RCS (m²)
2.26

External: N2YO · Heavens-Above · Gunter

§ Orbital elements

Epoch: 2026-09-20T04:25:21.991584Z

Period
98.37 min
Inclination
97.9852°
Eccentricity
0.0009928
Mean motion
14.63813334 rev/d
Perigee alt
673.9 km
Apogee alt
687.9 km
Semi-major
7,059.0 km
B*
7.6411e-5
RAAN
329.6114°
Arg perigee
204.1169°
Mean anomaly
155.9570°
Rev number
63,881

§ Raw data

SJ-11-071 40261U 14059A   26263.18428231  .00000353  00000+0  76411-4 0  99932 40261  97.9852 329.6114 0009928 204.1169 155.9570 14.63813334638816

JSON: /api/v1/satellites/40261 · /tle

For live sub-satellite position, see the globe view (requires WebGL).

§ Visibility from observer

Set your observer location to see the next 7 days of passes ≥ 10°. The values pass through the URL so the page stays shareable.

No JS? Fill the form by hand. The geolocation button needs JavaScript.